GW3437 Weather Reports


Display with metric or nautical units.
time (UTC)temp
F
wind
direction
speed
MPH
gust
MPH
rain 1hr
in
rain 24hr
in
rain mn
in
humidity
%
barometer
mb
20260906132042 81 134 0.0 0.0 0.00 0.00 0.00 65 1016.3
20260906131537 80 134 0.0 0.0 0.00 0.00 0.00 66 1016.3
20260906131033 79 136 0.0 0.0 0.00 0.00 0.00 69 1016.2
20260906130532 79 135 0.0 0.0 0.00 0.00 0.00 69 1016.1
20260906130027 78 136 0.0 0.0 0.00 0.00 0.00 70 1016.2
20260906125524 78 136 0.0 0.0 0.00 0.00 0.00 70 1016.2
20260906125019 77 135 0.0 0.0 0.00 0.00 0.00 71 1016.1
20260906124514 77 135 0.0 0.0 0.00 0.00 0.00 73 1016.0
20260906124009 77 135 0.0 0.0 0.00 0.00 0.00 74 1016.1
20260906123508 76 134 0.0 0.0 0.00 0.00 0.00 73 1015.9
20260906123004 77 134 0.0 0.0 0.00 0.00 0.00 73 1015.9
20260906122457 76 134 0.0 0.0 0.00 0.00 0.00 74 1015.9
20260906121954 76 134 0.0 0.0 0.00 0.00 0.00 74 1015.9
20260906121450 76 134 0.0 0.0 0.00 0.00 0.00 73 1015.7
20260906120946 77 134 0.0 0.0 0.00 0.00 0.00 73 1015.7
20260906120441 77 134 0.0 0.0 0.00 0.00 0.00 73 1015.6
20260906115937 77 133 0.0 0.0 0.00 0.00 0.00 72 1015.8
20260906115433 77 133 0.0 0.0 0.00 0.00 0.00 71 1015.4
20260906114932 76 132 0.0 0.0 0.00 0.00 0.00 71 1015.8
20260906114427 77 125 0.0 0.0 0.00 0.00 0.00 71 1015.5
20260906113923 77 125 0.0 0.0 0.00 0.00 0.00 71 1015.4
20260906113421 77 125 0.0 0.0 0.00 0.00 0.00 71 1015.4
20260906112917 77 124 0.0 0.0 0.00 0.00 0.00 71 1015.4
20260906112413 77 125 0.0 0.0 0.00 0.00 0.00 71 1015.3
20260906111908 77 127 0.0 0.0 0.00 0.00 0.00 71 1015.1
20260906111407 77 138 0.0 0.0 0.00 0.00 0.00 70 1015.3
20260906110902 77 109 0.0 0.0 0.00 0.00 0.00 71 1015.1
20260906110358 77 123 0.0 0.0 0.00 0.00 0.00 70 1015.2
20260906105857 77 127 0.0 0.0 0.00 0.00 0.00 71 1015.3
20260906105353 77 127 0.0 0.0 0.00 0.00 0.00 70 1015.1
20260906104849 78 127 0.0 0.0 0.00 0.00 0.00 69 1015.3
20260906104347 77 118 0.0 0.0 0.00 0.00 0.00 70 1015.0
20260906103846 77 135 0.0 0.0 0.00 0.00 0.00 70 1015.0
20260906103344 77 135 0.0 0.0 0.00 0.00 0.00 70 1014.8
20260906102841 77 136 0.0 0.0 0.00 0.00 0.00 70 1015.1
20260906102339 78 136 0.0 0.0 0.00 0.00 0.00 69 1014.8
20260906101834 78 136 0.0 0.0 0.00 0.00 0.00 69 1015.0
20260906101329 78 140 0.0 0.0 0.00 0.00 0.00 68 1014.9
20260906100825 78 148 0.0 0.0 0.00 0.00 0.00 67 1014.6
20260906100324 78 126 0.0 0.0 0.00 0.00 0.00 68 1015.0
20260906095819 78 145 0.0 0.0 0.00 0.00 0.00 68 1014.9
20260906095315 78 142 0.0 0.0 0.00 0.00 0.00 69 1015.0
20260906094814 79 147 0.0 0.0 0.00 0.00 0.00 67 1014.8
20260906094309 79 152 0.0 1.0 0.00 0.00 0.00 67 1014.8
20260906093806 79 127 0.0 0.0 0.00 0.00 0.00 66 1015.0
20260906093301 79 127 0.0 0.0 0.00 0.00 0.00 65 1014.8
20260906092755 79 127 0.0 0.0 0.00 0.00 0.00 65 1014.9
20260906092250 80 123 0.0 0.0 0.00 0.00 0.00 65 1014.8
20260906091746 80 124 0.0 0.0 0.00 0.00 0.00 64 1014.8
20260906091242 79 125 0.0 0.0 0.00 0.00 0.00 65 1014.9
20260906090738 79 130 0.0 0.0 0.00 0.00 0.00 65 1014.8
20260906090237 79 130 0.0 0.0 0.00 0.00 0.00 66 1014.8
20260906085737 79 130 0.0 0.0 0.00 0.00 0.00 66 1014.8
20260906085236 79 130 0.0 0.0 0.00 0.00 0.00 65 1014.8
20260906084730 79 130 0.0 0.0 0.00 0.00 0.00 65 1014.8
20260906084225 80 130 0.0 0.0 0.00 0.00 0.00 64 1014.8
20260906083719 79 132 0.0 0.0 0.00 0.00 0.00 65 1014.7
20260906083215 80 132 0.0 0.0 0.00 0.00 0.00 65 1014.7
20260906082710 80 132 0.0 0.0 0.00 0.00 0.00 64 1014.7
20260906082159 80 132 0.0 0.0 0.00 0.00 0.00 64 1014.6
20260906081649 80 132 0.0 0.0 0.00 0.00 0.00 65 1014.6
20260906081144 80 132 0.0 0.0 0.00 0.00 0.00 64 1014.6
20260906080641 80 132 0.0 0.0 0.00 0.00 0.00 65 1014.4
20260906080137 80 132 0.0 0.0 0.00 0.00 0.00 64 1014.4
20260906075636 80 131 0.0 0.0 0.00 0.00 0.00 64 1014.4
20260906075131 80 131 0.0 0.0 0.00 0.00 0.00 63 1014.4
20260906074626 80 131 0.0 0.0 0.00 0.00 0.00 63 1014.8
20260906074125 80 131 0.0 0.0 0.00 0.00 0.00 63 1014.4
20260906073620 81 131 0.0 0.0 0.00 0.00 0.00 62 1014.6
20260906073116 80 129 0.0 0.0 0.00 0.00 0.00 63 1014.7
20260906072611 80 129 0.0 0.0 0.00 0.00 0.00 63 1014.8
20260906072106 81 129 0.0 0.0 0.00 0.00 0.00 63 1014.7
20260906071603 81 129 0.0 0.0 0.00 0.00 0.00 63 1014.7
20260906071057 81 129 0.0 0.0 0.00 0.00 0.00 62 1014.8
20260906070554 81 129 0.0 0.0 0.00 0.00 0.00 61 1014.9
20260906070049 82 129 0.0 0.0 0.00 0.00 0.00 61 1014.7
20260906065548 82 129 0.0 0.0 0.00 0.00 0.00 60 1014.8
20260906065044 82 129 0.0 0.0 0.00 0.00 0.00 59 1014.6
20260906064540 83 129 0.0 0.0 0.00 0.00 0.00 58 1014.6
20260906064035 83 129 0.0 0.0 0.00 0.00 0.00 58 1014.7
20260906063530 83 129 0.0 0.0 0.00 0.00 0.00 58 1014.6
20260906063026 83 129 0.0 0.0 0.00 0.00 0.00 57 1014.8
20260906062521 84 127 0.0 0.0 0.00 0.00 0.00 56 1014.7
20260906062015 84 127 0.0 0.0 0.00 0.00 0.00 56 1014.8
20260906061511 84 125 0.0 0.0 0.00 0.00 0.00 56 1014.8
20260906061005 84 124 0.0 0.0 0.00 0.00 0.00 55 1014.9
20260906060502 85 113 0.0 0.0 0.00 0.00 0.00 54 1014.8
20260906055958 85 125 0.0 0.0 0.00 0.00 0.00 54 1014.7
20260906055454 84 128 0.0 0.0 0.00 0.00 0.00 54 1014.8
20260906054949 84 130 0.0 0.0 0.00 0.00 0.00 55 1014.6
20260906054449 84 132 0.0 0.0 0.00 0.00 0.00 55 1014.7
20260906053945 84 132 0.0 0.0 0.00 0.00 0.00 54 1014.8
20260906053441 84 129 0.0 0.0 0.00 0.00 0.00 55 1014.7
20260906052936 84 129 0.0 0.0 0.00 0.00 0.00 55 1014.6
20260906052432 84 129 0.0 0.0 0.00 0.00 0.00 56 1014.4
20260906051929 85 130 0.0 0.0 0.00 0.00 0.00 55 1014.4
20260906051424 85 127 0.0 0.0 0.00 0.00 0.00 55 1014.4
20260906050919 84 125 0.0 0.0 0.00 0.00 0.00 56 1014.4
20260906050414 84 131 0.0 0.0 0.00 0.00 0.00 56 1014.3
20260906045913 84 131 0.0 0.0 0.00 0.00 0.00 56 1014.2
20260906045412 84 130 0.0 0.0 0.00 0.00 0.00 55 1014.4
20260906044908 85 125 0.0 0.0 0.00 0.00 0.00 55 1014.6
20260906044403 84 136 0.0 0.0 0.00 0.00 0.00 56 1014.4
20260906043859 84 137 0.0 0.0 0.00 0.00 0.00 56 1014.4
20260906043354 84 137 0.0 0.0 0.00 0.00 0.00 55 1014.4
20260906042849 85 137 0.0 0.0 0.00 0.00 0.00 54 1014.4
20260906042348 86 137 0.0 0.0 0.00 0.00 0.00 53 1014.4
20260906041843 86 136 0.0 0.0 0.00 0.00 0.00 53 1014.2
20260906041339 86 137 0.0 0.0 0.00 0.00 0.00 52 1014.3
20260906040834 86 136 0.0 0.0 0.00 0.00 0.00 52 1014.7
20260906040329 87 137 0.0 0.0 0.00 0.00 0.00 51 1014.4
20260906035824 87 137 0.0 0.0 0.00 0.00 0.00 51 1014.6
20260906035325 87 133 0.0 1.0 0.00 0.00 0.00 50 1014.4
20260906034820 87 143 0.0 0.0 0.00 0.00 0.00 50 1014.7
20260906034315 87 141 0.0 0.0 0.00 0.00 0.00 49 1014.6
20260906033811 88 142 0.0 0.0 0.00 0.00 0.00 49 1014.3
20260906033310 89 142 0.0 0.0 0.00 0.00 0.00 48 1014.6
20260906032806 89 141 0.0 0.0 0.00 0.00 0.00 48 1014.2
20260906032305 89 128 0.0 0.0 0.00 0.00 0.00 48 1014.3
20260906031757 89 134 0.0 0.0 0.00 0.00 0.00 48 1014.2
20260906031253 89 128 0.0 0.0 0.00 0.00 0.00 48 1014.2
20260906030746 89 141 0.0 1.0 0.00 0.00 0.00 48 1014.6
20260906030242 89 138 0.0 0.0 0.00 0.00 0.00 48 1014.2
20260906025742 89 139 0.0 0.0 0.00 0.00 0.00 48 1014.4
20260906025241 89 144 0.0 0.0 0.00 0.00 0.00 47 1014.2
20260906024739 89 142 0.0 0.0 0.00 0.00 0.00 47 1014.1
20260906024234 89 128 0.0 0.0 0.00 0.00 0.00 46 1013.9
20260906023730 89 131 0.0 0.0 0.00 0.00 0.00 47 1013.9
20260906023225 89 135 0.0 0.0 0.00 0.00 0.00 47 1014.0
20260906022720 89 130 0.0 0.0 0.00 0.00 0.00 48 1013.9
20260906022215 89 131 0.0 0.0 0.00 0.00 0.00 48 1013.8
20260906021711 90 130 0.0 0.0 0.00 0.00 0.00 47 1013.8
20260906021209 90 130 0.0 0.0 0.00 0.00 0.00 46 1013.8
20260906020705 91 130 0.0 0.0 0.00 0.00 0.00 46 1013.7
20260906020159 91 129 0.0 0.0 0.00 0.00 0.00 45 1013.8
20260906015653 91 129 0.0 0.0 0.00 0.00 0.00 44 1013.8
20260906015146 92 130 0.0 0.0 0.00 0.00 0.00 44 1013.6
20260906014641 92 136 0.0 0.0 0.00 0.00 0.00 43 1013.6
20260906014137 93 144 0.0 0.0 0.00 0.00 0.00 43 1013.6
20260906013633 93 127 0.0 0.0 0.00 0.00 0.00 42 1013.5
20260906013128 93 132 0.0 0.0 0.00 0.00 0.00 42 1013.5
20260906012627 94 135 0.0 0.0 0.00 0.00 0.00 41 1013.4
20260906012122 94 125 0.0 0.0 0.00 0.00 0.00 41 1013.5
20260906011618 95 127 0.0 1.0 0.00 0.00 0.00 40 1013.3
20260906011113 95 114 0.0 0.0 0.00 0.00 0.00 40 1013.3
20260906010608 95 129 0.0 0.0 0.00 0.00 0.00 40 1013.2
20260906010104 95 118 0.0 0.0 0.00 0.00 0.00 39 1013.3
20260906005603 96 99 0.0 0.0 0.00 0.00 0.00 39 1013.1
20260906005102 96 110 0.0 0.0 0.00 0.00 0.00 39 1013.1
20260906004602 96 125 0.0 1.0 0.00 0.00 0.00 38 1013.1
20260906004057 97 119 0.0 0.0 0.00 0.00 0.00 38 1013.0
20260906003546 97 130 0.0 1.0 0.00 0.00 0.00 37 1013.0
20260906003042 98 115 0.0 1.0 0.00 0.00 0.00 37 1013.1
20260906002537 98 98 0.0 1.0 0.00 0.00 0.00 36 1013.0
20260906002032 99 248 1.0 4.0 0.00 0.00 0.00 35 1013.1
20260906001527 99 301 0.0 2.0 0.00 0.00 0.00 35 1013.0
20260906001021 100 106 0.0 2.0 0.00 0.00 0.00 35 1012.9
20260906000517 100 87 1.0 2.0 0.00 0.00 0.00 35 1012.8
20260906000012 100 40 8.0 9.0 0.00 0.00 0.00 35 1012.7
20260905235506 100 41 1.0 1.0 0.00 0.00 0.00 34 1012.7
20260905235001 100 32 3.0 3.0 0.00 0.00 0.00 34 1013.0
20260905234456 100 182 0.0 1.0 0.00 0.00 0.00 34 1012.9
20260905233950 100 185 1.0 8.0 0.00 0.00 0.00 34 1012.6
20260905233446 100 60 2.0 4.0 0.00 0.00 0.00 34 1012.6
20260905232944 100 82 2.0 2.0 0.00 0.00 0.00 34 1012.6
20260905232441 101 194 0.0 0.0 0.00 0.00 0.00 33 1012.7
20260905231937 100 103 1.0 2.0 0.00 0.00 0.00 34 1012.6
20260905231432 101 190 1.0 3.0 0.00 0.00 0.00 33 1012.7
20260905230928 102 166 3.0 4.0 0.00 0.00 0.00 33 1012.6
20260905230427 102 3 1.0 2.0 0.00 0.00 0.00 33 1012.6
20260905225925 102 227 4.0 4.0 0.00 0.00 0.00 33 1012.7
20260905225420 101 186 3.0 4.0 0.00 0.00 0.00 33 1012.5
20260905224915 101 211 3.0 6.0 0.00 0.00 0.00 33 1012.6
20260905224411 101 153 1.0 1.0 0.00 0.00 0.00 33 1012.6
20260905223905 102 44 1.0 2.0 0.00 0.00 0.00 32 1012.6
20260905223403 101 54 2.0 3.0 0.00 0.00 0.00 33 1012.5
20260905222858 101 151 2.0 8.0 0.00 0.00 0.00 33 1012.6
20260905222356 101 179 3.0 6.0 0.00 0.00 0.00 33 1012.7
20260905221852 101 192 6.0 9.0 0.00 0.00 0.00 33 1012.7
20260905221349 102 232 4.0 7.0 0.00 0.00 0.00 32 1012.5
20260905220839 104 192 6.0 7.0 0.00 0.00 0.00 31 1012.6
20260905220335 103 24 0.0 6.0 0.00 0.00 0.00 32 1012.8
20260905215834 102 181 0.0 3.0 0.00 0.00 0.00 32 1012.7
20260905215330 102 187 1.0 6.0 0.00 0.00 0.00 33 1012.6
20260905214826 102 217 4.0 6.0 0.00 0.00 0.00 32 1012.8
20260905214321 102 206 5.0 9.0 0.00 0.00 0.00 33 1013.0
20260905213816 102 181 1.0 8.0 0.00 0.00 0.00 33 1013.1
20260905213313 103 176 1.0 3.0 0.00 0.00 0.00 32 1012.9
20260905212812 102 238 1.0 2.0 0.00 0.00 0.00 32 1012.9
20260905212307 101 172 7.0 10.0 0.00 0.00 0.00 34 1013.3
20260905211801 101 205 4.0 7.0 0.00 0.00 0.00 33 1013.3
20260905211256 101 180 2.0 9.0 0.00 0.00 0.00 33 1013.4
20260905210753 103 195 5.0 7.0 0.00 0.00 0.00 32 1013.3
20260905210252 102 172 2.0 8.0 0.00 0.00 0.00 33 1013.4
20260905205751 102 183 1.0 4.0 0.00 0.00 0.00 33 1013.3
20260905205246 101 202 1.0 10.0 0.00 0.00 0.00 33 1013.5
20260905204745 102 202 5.0 7.0 0.00 0.00 0.00 33 1013.6
20260905204242 102 211 3.0 8.0 0.00 0.00 0.00 34 1013.6
20260905203741 102 142 4.0 9.0 0.00 0.00 0.00 34 1013.7
20260905203237 103 220 3.0 8.0 0.00 0.00 0.00 32 1013.8
20260905202732 103 278 6.0 7.0 0.00 0.00 0.00 32 1014.1
20260905202227 102 160 3.0 8.0 0.00 0.00 0.00 33 1013.7
20260905201722 102 222 1.0 2.0 0.00 0.00 0.00 32 1013.9
20260905201217 102 203 4.0 8.0 0.00 0.00 0.00 33 1014.1
20260905200712 102 207 2.0 7.0 0.00 0.00 0.00 33 1014.1
20260905200208 102 221 4.0 6.0 0.00 0.00 0.00 34 1014.1
20260905195706 101 219 6.0 7.0 0.00 0.00 0.00 35 1014.2
20260905195200 104 159 2.0 4.0 0.00 0.00 0.00 32 1014.6
20260905194650 102 201 2.0 11.0 0.00 0.00 0.00 33 1014.6
20260905194149 102 174 2.0 6.0 0.00 0.00 0.00 33 1014.8
20260905193644 101 161 5.0 10.0 0.00 0.00 0.00 35 1014.8
20260905193139 103 150 5.0 10.0 0.00 0.00 0.00 34 1014.8
20260905192634 103 34 1.0 2.0 0.00 0.00 0.00 34 1014.8
20260905192131 102 202 1.0 3.0 0.00 0.00 0.00 35 1014.8
20260905191630 101 160 4.0 6.0 0.00 0.00 0.00 36 1015.1
20260905191128 101 214 4.0 6.0 0.00 0.00 0.00 36 1015.0
20260905190621 99 267 4.0 7.0 0.00 0.00 0.00 36 1015.0
20260905190120 101 176 2.0 8.0 0.00 0.00 0.00 35 1015.1
20260905185619 101 155 4.0 8.0 0.00 0.00 0.00 35 1015.1
20260905185114 101 97 0.0 3.0 0.00 0.00 0.00 35 1015.3
20260905184608 100 142 0.0 1.0 0.00 0.00 0.00 36 1015.3
20260905184107 98 194 2.0 4.0 0.00 0.00 0.00 37 1015.4
20260905183606 99 182 4.0 7.0 0.00 0.00 0.00 38 1015.5
20260905183102 99 204 3.0 10.0 0.00 0.00 0.00 37 1015.7
20260905182601 100 213 3.0 8.0 0.00 0.00 0.00 37 1015.6
20260905182056 101 15 3.0 7.0 0.00 0.00 0.00 35 1015.7
20260905181551 100 100 4.0 4.0 0.00 0.00 0.00 37 1015.7
20260905181050 99 132 1.0 6.0 0.00 0.00 0.00 38 1015.7
20260905180545 99 147 2.0 6.0 0.00 0.00 0.00 38 1015.8
20260905180041 99 169 2.0 4.0 0.00 0.00 0.00 38 1016.0
20260905175539 99 286 1.0 3.0 0.00 0.00 0.00 40 1015.9
20260905175035 98 173 2.0 7.0 0.00 0.00 0.00 40 1016.0
20260905174531 98 178 4.0 7.0 0.00 0.00 0.00 40 1016.1
20260905174026 98 240 1.0 6.0 0.00 0.00 0.00 41 1016.0
20260905173523 97 77 3.0 4.0 0.00 0.00 0.00 42 1015.9
20260905173018 99 67 2.0 2.0 0.00 0.00 0.00 40 1016.0
20260905172516 97 183 1.0 8.0 0.00 0.00 0.00 42 1016.2
20260905172012 98 169 3.0 9.0 0.00 0.00 0.00 41 1016.2
20260905171508 96 195 2.0 6.0 0.00 0.00 0.00 41 1016.3
20260905171004 95 186 3.0 4.0 0.00 0.00 0.00 44 1016.2
20260905170500 97 215 3.0 11.0 0.00 0.00 0.00 43 1016.2
20260905165959 96 88 1.0 3.0 0.00 0.00 0.00 42 1016.3
20260905165455 97 163 2.0 7.0 0.00 0.00 0.00 42 1016.3
20260905164949 98 182 2.0 3.0 0.00 0.00 0.00 41 1016.3
20260905164444 97 169 2.0 3.0 0.00 0.00 0.00 42 1016.4
20260905163939 96 149 3.0 6.0 0.00 0.00 0.00 43 1016.5
20260905163436 96 177 3.0 6.0 0.00 0.00 0.00 43 1016.4
20260905162931 96 160 4.0 8.0 0.00 0.00 0.00 43 1016.4
20260905162426 97 94 3.0 4.0 0.00 0.00 0.00 44 1016.6
20260905161921 96 112 2.0 4.0 0.00 0.00 0.00 43 1016.5
20260905161420 95 258 3.0 6.0 0.00 0.00 0.00 44 1016.5
20260905160918 95 198 1.0 2.0 0.00 0.00 0.00 44 1016.5
20260905160412 95 189 1.0 7.0 0.00 0.00 0.00 45 1016.3
20260905155907 95 129 2.0 7.0 0.00 0.00 0.00 46 1016.6
20260905155407 93 254 2.0 3.0 0.00 0.00 0.00 47 1016.4
20260905154905 93 172 2.0 7.0 0.00 0.00 0.00 48 1016.3
20260905154401 92 113 4.0 6.0 0.00 0.00 0.00 48 1016.4
20260905153856 92 132 2.0 6.0 0.00 0.00 0.00 49 1016.2
20260905153353 92 150 2.0 6.0 0.00 0.00 0.00 49 1016.3
20260905152852 91 257 1.0 7.0 0.00 0.00 0.00 50 1016.3
20260905152351 91 130 2.0 4.0 0.00 0.00 0.00 50 1016.2
20260905151847 90 172 4.0 9.0 0.00 0.00 0.00 53 1016.2
20260905151342 90 200 3.0 7.0 0.00 0.00 0.00 52 1016.2
20260905150837 89 213 4.0 7.0 0.00 0.00 0.00 52 1016.4
20260905150331 90 221 3.0 4.0 0.00 0.00 0.00 52 1016.2
20260905145829 89 205 4.0 8.0 0.00 0.00 0.00 54 1016.1
20260905145328 88 148 4.0 6.0 0.00 0.00 0.00 53 1016.3
20260905144828 88 188 4.0 8.0 0.00 0.00 0.00 54 1016.2
20260905144323 88 217 3.0 7.0 0.00 0.00 0.00 55 1016.0
20260905143822 88 193 4.0 7.0 0.00 0.00 0.00 54 1016.2
20260905143316 87 181 4.0 4.0 0.00 0.00 0.00 55 1016.0
20260905142815 87 185 2.0 6.0 0.00 0.00 0.00 56 1016.2
20260905142309 86 209 1.0 3.0 0.00 0.00 0.00 57 1016.0
20260905141806 86 163 5.0 6.0 0.00 0.00 0.00 58 1016.2
20260905141301 86 191 3.0 4.0 0.00 0.00 0.00 58 1015.9
20260905140756 86 198 4.0 6.0 0.00 0.00 0.00 58 1016.0
20260905140251 85 184 1.0 4.0 0.00 0.00 0.00 59 1016.1
20260905135749 85 195 4.0 6.0 0.00 0.00 0.00 59 1016.2
20260905135246 84 177 2.0 6.0 0.00 0.00 0.00 60 1016.3
20260905134745 85 205 2.0 6.0 0.00 0.00 0.00 60 1016.3
20260905134245 84 194 3.0 6.0 0.00 0.00 0.00 60 1015.9
20260905133739 84 151 2.0 4.0 0.00 0.00 0.00 60 1016.2
20260905133235 84 179 2.0 7.0 0.00 0.00 0.00 61 1016.0
20260905132733 84 197 3.0 4.0 0.00 0.00 0.00 61 1016.0